SM4TUV Weather Reports


Display with metric or nautical units.
time (UTC)temp
F
wind
direction
speed
MPH
gust
MPH
rain 1hr
in
rain 24hr
in
rain mn
in
humidity
%
barometer
mb
20260905141830 65 347 4.0 5.0 0.00 0.02 0.02 52 969.3
20260905140931 66 298 5.0 7.0 0.00 0.02 0.02 50 969.1
20260905140030 68 253 4.0 5.0 0.00 0.02 0.02 49 969.0
20260905134230 65 214 4.0 5.0 0.00 0.02 0.02 54 968.7
20260905133330 64 209 4.0 6.0 0.00 0.02 0.02 56 968.8
20260905132431 64 257 4.0 5.0 0.00 0.02 0.02 59 968.8
20260905131530 61 211 4.0 4.0 0.00 0.02 0.02 66 968.7
20260905130630 58 187 4.0 4.0 0.00 0.02 0.02 70 968.6
20260905125730 58 199 3.0 4.0 0.00 0.02 0.02 71 968.6
20260905124830 58 199 4.0 4.0 0.02 0.02 0.02 70 968.4
20260905122130 59 222 2.0 2.0 0.02 0.02 0.02 67 968.4
20260905121230 58 195 3.0 4.0 0.02 0.02 0.02 67 968.4
20260905120330 59 83 5.0 8.0 0.02 0.02 0.02 64 968.4
20260905115431 60 354 6.0 9.0 0.02 0.02 0.02 65 968.4
20260905113630 63 292 7.0 9.0 0.00 0.00 0.00 58 968.2
20260905111830 63 273 4.0 8.0 0.00 0.00 0.00 59 967.9
20260905110930 63 280 3.0 5.0 0.00 0.00 0.00 61 967.9
20260905110030 63 321 4.0 7.0 0.00 0.00 0.00 61 967.8
20260905104230 62 5 3.0 5.0 0.00 0.00 0.00 62 967.7
20260905102431 60 310 6.0 7.0 0.00 0.00 0.00 65 967.7
20260905101530 63 349 3.0 5.0 0.00 0.00 0.00 63 967.6
20260905100630 61 342 3.0 4.0 0.00 0.00 0.00 65 967.5
20260905095730 61 340 2.0 4.0 0.00 0.00 0.00 66 967.5
20260905094830 60 328 4.0 4.0 0.00 0.00 0.00 67 967.4
20260905093030 61 18 1.0 2.0 0.00 0.00 0.00 66 967.3
20260905092130 62 321 1.0 3.0 0.00 0.00 0.00 65 967.2
20260905091231 60 314 2.0 3.0 0.00 0.00 0.00 66 967.2
20260905090330 60 304 2.0 2.0 0.00 0.00 0.00 66 967.1
20260905085430 60 18 2.0 3.0 0.00 0.00 0.00 68 967.1
20260905084530 60 46 3.0 4.0 0.00 0.00 0.00 68 967.1
20260905082730 58 358 2.0 3.0 0.00 0.00 0.00 72 966.9
20260905081830 58 343 2.0 3.0 0.00 0.00 0.00 73 966.8
20260905080930 58 66 2.0 2.0 0.00 0.00 0.00 75 966.9
20260905080031 56 94 1.0 2.0 0.00 0.00 0.00 78 966.9
20260905075130 54 65 1.0 2.0 0.00 0.00 0.00 81 966.9
20260905074231 53 71 2.0 3.0 0.00 0.00 0.00 81 966.8
20260905073330 53 56 2.0 3.0 0.00 0.00 0.00 81 966.8
20260905072431 52 50 2.0 2.0 0.00 0.00 0.00 82 966.7
20260905071530 52 57 2.0 2.0 0.00 0.00 0.00 83 966.5
20260905070630 50 90 1.0 3.0 0.00 0.00 0.00 85 966.6
20260905065730 50 73 2.0 3.0 0.00 0.00 0.00 84 966.5
20260905064830 49 93 3.0 4.0 0.00 0.00 0.00 85 966.5
20260905063931 49 86 2.0 3.0 0.00 0.00 0.00 86 966.2
20260905063030 48 82 2.0 3.0 0.00 0.00 0.00 86 966.1
20260905062130 48 85 3.0 4.0 0.00 0.00 0.00 86 966.1
20260905061232 47 142 2.0 3.0 0.00 0.00 0.00 87 966.2
20260905060330 47 137 3.0 4.0 0.00 0.00 0.00 87 966.0
20260905055431 47 109 3.0 3.0 0.00 0.00 0.00 87 966.0
20260905053630 46 93 2.0 3.0 0.00 0.00 0.00 87 965.9
20260905052731 46 63 2.0 3.0 0.00 0.00 0.00 87 965.8
20260905051830 46 48 2.0 3.0 0.00 0.00 0.00 88 965.8
20260905050932 46 41 3.0 3.0 0.00 0.00 0.00 88 965.8
20260905050031 46 89 4.0 5.0 0.00 0.00 0.00 88 965.6
20260905045130 46 89 4.0 5.0 0.00 0.00 0.00 88 965.6
20260905044230 46 90 4.0 5.0 0.00 0.00 0.00 88 965.3
20260905043331 46 93 4.0 4.0 0.00 0.00 0.00 88 965.5
20260905042432 46 88 4.0 5.0 0.00 0.00 0.00 88 965.4
20260905041530 46 78 4.0 5.0 0.00 0.00 0.00 88 965.4
20260905040630 46 55 3.0 5.0 0.00 0.00 0.00 88 965.5
20260905035730 46 88 4.0 5.0 0.00 0.00 0.00 88 965.4
20260905034830 46 90 4.0 4.0 0.00 0.00 0.00 88 965.3
20260905033932 46 80 4.0 5.0 0.00 0.00 0.00 88 965.3
20260905032130 46 73 4.0 7.0 0.00 0.00 0.00 88 965.2
20260905031230 46 86 5.0 7.0 0.00 0.00 0.00 88 965.2
20260905030331 46 89 4.0 5.0 0.00 0.00 0.00 87 965.0
20260905025432 46 85 5.0 5.0 0.00 0.00 0.00 88 965.1
20260905024530 46 84 4.0 4.0 0.00 0.00 0.00 88 965.1
20260905023631 46 79 4.0 5.0 0.00 0.00 0.00 87 965.0
20260905022730 47 90 3.0 4.0 0.00 0.00 0.00 87 965.0
20260905021830 47 87 4.0 4.0 0.00 0.00 0.00 87 964.9
20260905020931 47 87 4.0 4.0 0.00 0.00 0.00 88 964.7
20260905020030 47 83 4.0 5.0 0.00 0.00 0.00 88 964.8
20260905013330 46 87 4.0 4.0 0.00 0.00 0.00 88 964.4
20260905012431 46 84 4.0 4.0 0.00 0.00 0.00 88 964.5
20260905011530 46 83 4.0 4.0 0.00 0.00 0.00 88 964.5
20260905010630 46 89 4.0 4.0 0.00 0.00 0.00 88 964.5
20260905005731 46 63 4.0 4.0 0.00 0.00 0.00 88 964.5
20260905004830 47 54 4.0 5.0 0.00 0.00 0.00 87 964.4
20260905003931 47 40 4.0 5.0 0.00 0.00 0.00 88 964.4
20260905003031 47 61 4.0 6.0 0.00 0.00 0.00 87 964.4
20260905002131 47 73 4.0 6.0 0.00 0.00 0.00 87 964.2
20260905001232 47 59 3.0 5.0 0.00 0.00 0.00 86 964.3
20260905000332 48 66 4.0 5.0 0.00 0.00 0.00 86 964.2
20260904235432 48 78 4.0 6.0 0.00 0.00 0.00 86 964.4
20260904233631 48 86 4.0 6.0 0.00 0.00 0.00 86 964.2
20260904232731 48 90 4.0 7.0 0.00 0.00 0.00 86 964.3
20260904231831 48 90 4.0 5.0 0.00 0.00 0.00 86 964.2
20260904230932 49 90 3.0 4.0 0.00 0.00 0.00 86 964.1
20260904224231 49 92 3.0 4.0 0.00 0.00 0.00 86 964.3
20260904223331 49 88 3.0 4.0 0.00 0.00 0.00 86 964.3
20260904222432 49 88 3.0 4.0 0.00 0.00 0.00 86 964.3
20260904221531 49 92 3.0 4.0 0.00 0.00 0.00 64 964.2
20260904220631 49 89 2.0 3.0 0.00 0.00 0.00 86 964.3
20260904215731 49 83 3.0 4.0 0.00 0.00 0.00 85 964.2
20260904214830 49 68 3.0 4.0 0.00 0.00 0.00 85 964.2
20260904213931 50 82 3.0 4.0 0.00 0.00 0.00 85 964.2
20260904213031 50 81 4.0 4.0 0.00 0.00 0.00 85 964.2
20260904212131 50 70 4.0 6.0 0.00 0.00 0.00 85 964.1
20260904211231 50 81 4.0 5.0 0.00 0.00 0.00 85 964.0
20260904210331 51 72 4.0 4.0 0.00 0.00 0.00 85 964.2
20260904205431 51 71 4.0 5.0 0.00 0.00 0.00 85 964.1
20260904204531 51 66 4.0 5.0 0.00 0.00 0.00 84 964.2
20260904203631 51 51 4.0 7.0 0.00 0.00 0.00 84 964.2
20260904201831 52 57 5.0 6.0 0.00 0.00 0.00 83 964.2
20260904200932 52 97 3.0 6.0 0.00 0.00 0.00 82 964.2
20260904200031 52 89 3.0 5.0 0.00 0.00 0.00 82 964.2
20260904194232 53 75 4.0 5.0 0.00 0.00 0.00 82 964.1
20260904192432 53 66 4.0 5.0 0.00 0.00 0.00 81 963.9
20260904191531 53 70 4.0 5.0 0.00 0.00 0.00 81 964.2
20260904190631 53 54 3.0 4.0 0.00 0.00 0.00 80 964.3
20260904185731 53 60 3.0 5.0 0.00 0.00 0.00 80 964.1
20260904184831 53 38 3.0 4.0 0.00 0.00 0.00 80 964.2
20260904183932 53 54 2.0 3.0 0.00 0.00 0.00 78 964.1
20260904183031 54 79 2.0 3.0 0.00 0.00 0.00 78 964.2
20260904182131 54 60 3.0 4.0 0.00 0.00 0.00 77 964.2
20260904180331 55 59 4.0 4.0 0.00 0.00 0.00 75 964.3
20260904175431 55 73 4.0 4.0 0.00 0.00 0.00 75 964.2
20260904174531 55 86 3.0 4.0 0.00 0.00 0.00 74 964.1
20260904173631 55 74 3.0 4.0 0.00 0.00 0.00 73 964.1
20260904172731 56 65 3.0 4.0 0.00 0.00 0.00 73 964.1
20260904171831 56 67 4.0 5.0 0.00 0.00 0.00 72 964.1
20260904170931 56 49 4.0 5.0 0.00 0.00 0.00 72 964.2
20260904170031 56 61 4.0 5.0 0.00 0.00 0.00 72 964.3
20260904165131 57 62 4.0 5.0 0.00 0.00 0.00 72 964.3
20260904164231 58 57 4.0 5.0 0.00 0.00 0.00 70 964.2
20260904163331 58 37 4.0 4.0 0.00 0.00 0.00 70 964.3
20260904161531 59 72 2.0 3.0 0.00 0.00 0.00 66 964.4
20260904160631 60 82 3.0 3.0 0.00 0.00 0.00 63 964.3
20260904155731 60 37 4.0 5.0 0.00 0.00 0.00 62 964.3
20260904154831 61 42 3.0 4.0 0.00 0.00 0.00 61 964.4
20260904153932 62 21 3.0 5.0 0.00 0.00 0.00 61 964.6
20260904153031 62 52 3.0 5.0 0.00 0.00 0.00 59 964.4
20260904152131 62 108 2.0 3.0 0.00 0.00 0.00 54 964.4
20260904151231 62 100 4.0 4.0 0.00 0.00 0.00 54 964.7
20260904150334 63 91 4.0 6.0 0.00 0.00 0.00 51 964.7
20260904144531 66 176 3.0 6.0 0.00 0.00 0.00 48 964.8
20260904143631 67 74 3.0 4.0 0.00 0.00 0.00 54 964.7
20260904142731 66 307 2.0 4.0 0.00 0.00 0.00 53 964.8